Location: Unspecified
(52.4292°N, 19.3359°E)
Time: 22:17:50
(UTC+02:00)

A-11 Canister half - Pass Details

Date: 18 May 2024
Orbit: 1524 x 1683 km, 47.3° (Epoch: 19 June)

Event Time Altitude Azimuth Distance (km) Brightness Sun altitude
Rises 02:38:29 0° 269° (W) 4,763 11.3 -13.4°
Reaches altitude 10° 02:41:33 10° 266° (W) 3,798 10.7 -13.2°
Maximum altitude 02:51:04 64° 189° (S) 1,772 9.1 -12.4°
Drops below altitude 10° 03:00:54 10° 111° (ESE) 3,914 11.3 -11.6°
Sets 03:04:07 0° 108° (ESE) 4,915 11.9 -11.4°
